Regional Weather Roundup
Issued by NWS Charleston, SC

Current Version | Previous Version | Graphics & Text | Print | Product List | Glossary On
Versions: 1 2 3 4 5 6 7 8 9 10 11 12 13 14 15 16 17 18 19 20 21 22 23 24 25 26 27 28 29 30 31 32 33 34 35 36 37 38 39 40 41 42 43 44 45 46 47 48 49 50
000
ASUS42 KCHS 170825
RWRCHS

REGIONAL WEATHER ROUNDUP
NATIONAL WEATHER SERVICE CHARLESTON SC
400 AM EDT WED SEP 17 2014

NOTE: "FAIR" INDICATES FEW OR NO CLOUDS BELOW 12,000 FEET WITH NO
SIGNIFICANT WEATHER AND/OR OBSTRUCTIONS TO VISIBILITY.

NOT ALL STATIONS ARE QUALITY CONTROLLED BY THE NATIONAL
WEATHER SERVICE. USE DATA WITH CAUTION...ESPECIALLY
DEWPOINT OBSERVATIONS.

SCZ027-030-031-034>040-042>050-170900-
...SOUTH CAROLINA...

CITY           SKY/WX    TMP DP  RH WIND       PRES   REMARKS
N CHARLESTON   PTCLDY    72  69  90 N5        29.91F
WATERFRONT PRK   N/A     77 N/A N/A N6          N/A
FORT JOHNSON   NOT AVBL
MOUNT PLEASANT FAIR      72  72 100 CALM      29.91F FOG
JOHNS ISLAND   MOSUNNY   73  73 100 CALM      29.92S FOG
PINOPOLIS        N/A     75  72  88 NE6       29.86F
MONCKS CORNER    N/A     72  72 100 CALM      29.93S
SUMMERVILLE    PTSUNNY   70  70 100 CALM      29.93F
BEAUFORT MCAS  MOCLDY    74  72  93 W3        29.91S
BEAUFORT ARPT  CLOUDY    75  75 100 N5        29.90F
HILTON HEAD IS MOCLDY    75  75 100 N6        29.92S
GEORGETOWN     NOT AVBL
WALTERBORO     FOG       72 N/A N/A E3        29.93S VSB 1/4
ORANGEBURG     CLOUDY    71  68  90 NE3       29.94S
BARNWELL       FAIR      72  70  94 NE5       29.93S
AIKEN          FAIR      68  68 100 NE5       29.98S
MANNING        FAIR      70 N/A N/A NE3       29.94F
KINGSTREE      NOT AVBL
COLUMBIA       PTCLDY    71  65  81 E7        29.94F
SUMTER         LGT RAIN  68  63  83 E8        29.93F
FLORENCE       MOCLDY    68  64  87 CALM      29.94F
MYRTLE BEACH   CLOUDY    72  66  83 SE7       29.94S
N MYRTLE BEACH CLOUDY    71  64  78 CALM      29.93F

$$

GAZ063-065-086>088-099>101-113>116-118-119-134-136>141-150-170900-
...GEORGIA...

CITY           SKY/WX    TMP DP  RH WIND       PRES   REMARKS
SAVANNAH ARPT  CLEAR     70  67  90 CALM      29.92S
HUNTER AAF     CLEAR     68  68 100 W2        29.90S
FORT STEWART   MOCLDY    71  69  93 CALM      29.90S
STATESBORO     NOT AVBL
SYLVANIA       FOG       72  71  98 CALM      29.93S VSB<1/4
CLAXTON        FAIR     N/A N/A N/A CALM      29.92S
THOMSON        CLEAR     69  69 100 CALM      29.96F
AUGUSTA-BUSH   PTCLDY    69  68  96 CALM      29.91F
AUGUSTA-DANIEL CLEAR     72  71  97 CALM      29.93F
SWAINSBORO     FAIR      72  72 100 CALM      29.92S
VIDALIA        PTCLDY    70  70 100 CALM      29.92S
ALMA           CLEAR     71  70  96 CALM      29.92F
WAYCROSS       CLOUDY    73  73 100 CALM      29.92S
JESUP          FAIR      72  70  94 CALM      29.91F
BRUNSWICK      PTCLDY    72  70  94 W3        29.91S
SAINT SIMONS   PTCLDY    73  71  93 NW3       29.90F

$$

SCZ027-028-034-036>038-045-046-048>050-GAZ119-141-170900-
...LAKE AND SUPPLEMENTAL COASTAL OBSERVATIONS...

STATION/POSITION TIME  TEMP    WIND        PRES    WAVE   SWELL
                       AIR SEA DIR/SP/G            HT/PER HT/PER/DIR
                 (UTC) (F)     (DEG/KT/KT) (MB)    (FT/S) (FT/S/D)
UPR LAKE MARION  NOT AVBL
WINYAH BAY       0800   71     350/  5     1013.0S
LAKE MURRAY      0700   71      50/  3/  6 1013.5F
ACE BASIN NERRS  0800   72        CALM     1013.0S
FORT PULASKI     0800   72     320/  6/  7 1013.1R
SAPELO ISLAND    0800   74     340/  4     1013.0S

$$

ANZ835-935-AMZ111-154-330-350-352-354-374-450-454-472-170900-
...C-MAN AND BUOY OBSERVATIONS...

STATION/POSITION TIME  TEMP    WIND        PRES    WAVE   SWELL
                       AIR SEA DIR/SP/G            HT/PER HT/PER/DIR
                 (UTC) (F)     (DEG/KT/KT) (MB)    (FT/S) (FT/S/D)
FOLLY BEACH CMAN 0800   76     250/  6/  7 1013.3S
BUOY 41004       0800   79 83  250/  4/  6 1012.1F   2/12   2/12
BUOY 41008       0800   79 84  350/  6/ 10 1012.4R   1/14   2/110/14
5E ST. MARYS GA  0800      83                N/A     2/13   2/110/13
FRYING PAN BUOY  NOT AVBL
BUOY 41025       0800   76      20/ 10/ 14 1013.0F   3/14   3/120/14
CAPE LOOKOUT NC  0800   71     200/  4/  4 1013.1F
BUOY 41002       0725   77 82  270/  6/ 10 1012.6F   5/14   5/100/14
BUOY 41010       0800   79 85  230/ 12/ 14 1013.1F   3/12   2/100/12
BUOY 41012       NOT AVBL
ST AUGUSTINE FL  0800   73     290/  5/  7 1013.5F
CAPERS NEARSHORE 0700   77      10/  6/  8   N/A
FRIPP NEARSHORE  NOT AVBL


$$



USA.gov is the U.S. government's official web portal to all federal, state and local government web resources and services.